When you browse on this site, cookies collect data to enhance your experience and personalize the content and advertising you see.
Visit our Privacy Policy to learn more. By continuing to use the site, you agree to this use of cookies and data.
  • In Spain
  • List of Countries
  • For 7 days
  • Water Temperature
  • Weather Map
  • Weather Widgets
  • user-avatar
    Login

    Hourly Weather Mutare

    Today, 20 October, Sunday

    Time Temperature Precipitation Wind Pressure Humidity
    00:00 +17°C° 0 mm 2 mps 653 mmHg 85%
    01:00 +18°C° 0 mm 1 mps 652 mmHg 89%
    02:00 +16°C° 0 mm 1 mps 652 mmHg 94%
    03:00 +16°C° 0 mm 1 mps 652 mmHg 92%
    04:00 +16°C° 0 mm 1 mps 652 mmHg 91%
    05:00 +15°C° 0 mm 0 mps 652 mmHg 89%
    06:00 +19°C° 0 mm 0 mps 653 mmHg 72%
    07:00 +22°C° 0 mm 0 mps 655 mmHg 55%
    08:00 +26°C° 0 mm 0 mps 656 mmHg 38%
    09:00 +28°C° 0 mm 0 mps 656 mmHg 31%
    10:00 +33°C° 0 mm 1 mps 656 mmHg 24%
    11:00 +35°C° 0 mm 1 mps 656 mmHg 17%
    12:00 +35°C° 0 mm 1 mps 656 mmHg 17%
    13:00 +36°C° 0 mm 2 mps 655 mmHg 16%
    14:00 +36°C° 0 mm 2 mps 654 mmHg 15%
    15:00 +35°C° 0 mm 2 mps 654 mmHg 16%
    16:00 +34°C° 0 mm 2 mps 653 mmHg 18%
    17:00 +33°C° 0 mm 3 mps 653 mmHg 19%
    18:00 +29°C° 0 mm 3 mps 653 mmHg 32%
    19:00 +26°C° 0 mm 3 mps 653 mmHg 46%
    20:00 +22°C° 0 mm 3 mps 653 mmHg 59%
    21:00 +21°C° 0 mm 3 mps 653 mmHg 68%
    22:00 +20°C° 0 mm 2 mps 653 mmHg 78%
    23:00 +20°C° 0 mm 1 mps 653 mmHg 88%

    Tomorrow, 21 October, Monday

    Time Temperature Precipitation Wind Pressure Humidity
    00:00 +20°C° 0 mm 1 mps 652 mmHg 88%
    01:00 +19°C° 0 mm 1 mps 652 mmHg 89%
    02:00 +19°C° 0 mm 1 mps 651 mmHg 89%
    03:00 +19°C° 0 mm 1 mps 651 mmHg 85%
    04:00 +19°C° 0 mm 1 mps 651 mmHg 82%
    05:00 +19°C° 0 mm 1 mps 651 mmHg 78%
    06:00 +22°C° 0 mm 1 mps 652 mmHg 63%
    07:00 +26°C° 0 mm 1 mps 653 mmHg 48%
    08:00 +30°C° 0 mm 1 mps 654 mmHg 32%
    09:00 +32°C° 0 mm 1 mps 655 mmHg 26%
    10:00 +35°C° 0 mm 1 mps 655 mmHg 20%
    11:00 +38°C° 0 mm 2 mps 655 mmHg 14%
    12:00 +38°C° 0 mm 3 mps 654 mmHg 14%
    13:00 +38°C° 0 mm 3 mps 653 mmHg 13%
    14:00 +37°C° 0 mm 4 mps 652 mmHg 13%
    15:00 +37°C° 0 mm 4 mps 652 mmHg 14%
    16:00 +36°C° 0 mm 3 mps 651 mmHg 15%
    17:00 +35°C° 0 mm 3 mps 651 mmHg 16%
    18:00 +31°C° 0 mm 3 mps 651 mmHg 20%
    19:00 +29°C° 0 mm 3 mps 651 mmHg 24%
    20:00 +27°C° 0 mm 3 mps 652 mmHg 29%
    21:00 +25°C° 0 mm 2 mps 651 mmHg 38%
    22:00 +24°C° 0 mm 2 mps 651 mmHg 46%
    23:00 +23°C° 0 mm 2 mps 651 mmHg 55%

    Day after tomorrow, 22 October, Tuesday

    Time Temperature Precipitation Wind Pressure Humidity
    00:00 +22°C° 0 mm 1 mps 650 mmHg 60%
    01:00 +21°C° 0 mm 1 mps 650 mmHg 66%
    02:00 +21°C° 0 mm 1 mps 649 mmHg 71%
    03:00 +20°C° 0 mm 1 mps 649 mmHg 68%
    04:00 +20°C° 0 mm 1 mps 649 mmHg 66%
    05:00 +20°C° 0 mm 1 mps 649 mmHg 63%
    06:00 +24°C° 0 mm 1 mps 651 mmHg 51%
    07:00 +28°C° 0 mm 1 mps 653 mmHg 38%
    08:00 +32°C° 0 mm 1 mps 654 mmHg 26%
    09:00 +34°C° 0 mm 2 mps 654 mmHg 23%
    10:00 +36°C° 0 mm 3 mps 654 mmHg 20%
    11:00 +37°C° 0 mm 4 mps 655 mmHg 17%
    12:00 +37°C° 0 mm 4 mps 654 mmHg 17%
    13:00 +37°C° 0 mm 5 mps 653 mmHg 18%
    14:00 +37°C° 0 mm 5 mps 653 mmHg 18%
    15:00 +36°C° 0 mm 5 mps 653 mmHg 20%
    16:00 +35°C° 0 mm 5 mps 652 mmHg 23%
    17:00 +33°C° 0 mm 5 mps 652 mmHg 25%
    18:00 +30°C° 0 mm 4 mps 652 mmHg 40%
    19:00 +27°C° 0 mm 4 mps 652 mmHg 55%
    20:00 +24°C° 0 mm 3 mps 652 mmHg 70%
    21:00 +22°C° 0 mm 3 mps 652 mmHg 74%
    22:00 +21°C° 0 mm 3 mps 652 mmHg 78%
    23:00 +19°C° 0 mm 2 mps 651 mmHg 83%

    23 October, Wednesday

    Time Temperature Precipitation Wind Pressure Humidity
    00:00 +19°C° 0 mm 2 mps 651 mmHg 86%
    01:00 +18°C° 0 mm 2 mps 650 mmHg 89%
    02:00 +18°C° 0 mm 2 mps 650 mmHg 92%
    03:00 +17°C° 0 mm 2 mps 650 mmHg 93%
    04:00 +17°C° 0 mm 2 mps 650 mmHg 93%
    05:00 +17°C° 0 mm 2 mps 650 mmHg 93%
    06:00 +20°C° 0 mm 2 mps 651 mmHg 76%
    07:00 +24°C° 0 mm 2 mps 652 mmHg 59%
    08:00 +27°C° 0 mm 3 mps 653 mmHg 42%
    09:00 +29°C° 0 mm 3 mps 654 mmHg 35%
    10:00 +33°C° 0 mm 4 mps 654 mmHg 29%
    11:00 +35°C° 0 mm 4 mps 654 mmHg 22%
    12:00 +36°C° 0 mm 4 mps 653 mmHg 21%
    13:00 +37°C° 0 mm 4 mps 653 mmHg 19%
    14:00 +37°C° 0 mm 4 mps 652 mmHg 17%
    15:00 +37°C° 0 mm 4 mps 652 mmHg 18%
    16:00 +36°C° 0 mm 4 mps 652 mmHg 20%
    17:00 +35°C° 0 mm 4 mps 651 mmHg 21%
    18:00 +32°C° 0 mm 4 mps 651 mmHg 27%
    19:00 +29°C° 0 mm 3 mps 651 mmHg 32%
    20:00 +27°C° 0 mm 3 mps 651 mmHg 38%
    21:00 +25°C° 0 mm 3 mps 651 mmHg 46%
    22:00 +24°C° 0 mm 2 mps 651 mmHg 54%
    23:00 +21°C° 0 mm 2 mps 651 mmHg 62%

    24 October, Thursday

    Time Temperature Precipitation Wind Pressure Humidity
    00:00 +20°C° 0 mm 2 mps 651 mmHg 70%
    01:00 +19°C° 0 mm 2 mps 650 mmHg 78%
    02:00 +19°C° 0 mm 2 mps 650 mmHg 86%
    03:00 +20°C° 0 mm 1 mps 650 mmHg 84%
    04:00 +20°C° 0 mm 1 mps 650 mmHg 82%
    05:00 +20°C° 0 mm 1 mps 651 mmHg 79%
    06:00 +23°C° 0 mm 1 mps 652 mmHg 64%
    07:00 +27°C° 0 mm 1 mps 653 mmHg 48%
    08:00 +30°C° 0 mm 2 mps 654 mmHg 33%
    09:00 +34°C° 0 mm 2 mps 654 mmHg 27%
    10:00 +36°C° 0 mm 3 mps 655 mmHg 21%
    11:00 +39°C° 0 mm 3 mps 655 mmHg 15%
    12:00 +40°C° 0 mm 4 mps 654 mmHg 15%
    13:00 +40°C° 0 mm 4 mps 653 mmHg 14%
    14:00 +40°C° 0 mm 5 mps 653 mmHg 14%
    15:00 +39°C° 0 mm 5 mps 652 mmHg 15%
    16:00 +37°C° 0 mm 4 mps 652 mmHg 16%
    17:00 +36°C° 0 mm 4 mps 652 mmHg 17%
    18:00 +33°C° 0 mm 4 mps 652 mmHg 21%
    19:00 +30°C° 0 mm 3 mps 652 mmHg 25%
    20:00 +27°C° 0 mm 2 mps 651 mmHg 30%
    21:00 +26°C° 0 mm 2 mps 652 mmHg 33%
    22:00 +25°C° 0 mm 2 mps 652 mmHg 36%
    23:00 +25°C° 0 mm 2 mps 652 mmHg 39%

    25 October, Friday

    Time Temperature Precipitation Wind Pressure Humidity
    00:00 +24°C° 0 mm 2 mps 651 mmHg 43%
    01:00 +23°C° 0 mm 2 mps 651 mmHg 47%
    02:00 +22°C° 0 mm 1 mps 650 mmHg 52%
    03:00 +21°C° 0 mm 1 mps 650 mmHg 53%
    04:00 +21°C° 0 mm 1 mps 651 mmHg 54%
    05:00 +21°C° 0 mm 1 mps 651 mmHg 55%
    06:00 +24°C° 0 mm 2 mps 652 mmHg 46%
    07:00 +28°C° 0 mm 2 mps 653 mmHg 37%
    08:00 +31°C° 0 mm 3 mps 654 mmHg 29%
    09:00 +34°C° 0 mm 3 mps 655 mmHg 24%
    10:00 +36°C° 0 mm 3 mps 655 mmHg 20%
    11:00 +38°C° 0 mm 4 mps 655 mmHg 16%
    12:00 +38°C° 0 mm 4 mps 654 mmHg 15%
    13:00 +40°C° 0 mm 4 mps 654 mmHg 14%
    14:00 +40°C° 0 mm 4 mps 653 mmHg 13%
    15:00 +38°C° 0 mm 4 mps 652 mmHg 15%
    16:00 +37°C° 0 mm 4 mps 652 mmHg 16%
    17:00 +36°C° 0 mm 4 mps 651 mmHg 18%
    18:00 +33°C° 0 mm 4 mps 651 mmHg 22%
    19:00 +30°C° 0 mm 3 mps 651 mmHg 25%
    20:00 +28°C° 0 mm 2 mps 651 mmHg 29%
    21:00 +27°C° 0 mm 2 mps 651 mmHg 30%
    22:00 +26°C° 0 mm 2 mps 651 mmHg 32%
    23:00 +25°C° 0 mm 2 mps 651 mmHg 33%
    Show more